[Date Prev][Date Next][Thread Prev][Thread Next] - [Date Index][Thread Index][Author Index]
2 Line ISS Keps 12-27
- Subject: [sarex] 2 Line ISS Keps 12-27
- From: "Dave Larsen PhD" <doc@xxxxxxxxxxx>
- Date: Sat, 27 Dec 2003 04:23:28 -0800
ISS
1 25544U 98067A 03361.12052083 .00020865 00000-0 20490-3 0 9375
2 25544 51.6288 126.2213 0006166 305.3760 48.2845 15.65988384291169
----
Via the sarex mailing list at AMSAT.ORG courtesy of AMSAT-NA.
To unsubscribe, send "unsubscribe sarex" to Majordomo@amsat.org
AMSAT Home